Tracking 29489 objects as of 9-Sep-2024
HD Live streaming from Space Station
objects crossing your sky now

FENGYUN 1C DEB

Track FENGYUN 1C DEB now!
10-day predictions


NORAD ID: 29851
Int'l Code: 1999-025EV
Perigee: 855.2 km
Apogee: 1,065.5 km
Inclination: 99.6 °
Period: 104.1 minutes
Semi major axis: 7331 km
RCS: 0.0808 m2 (small)
Launch date: May 10, 1999
Source: People's Republic of China (PRC)
Launch site: Taiyaun Space Center, China (TSC)

Note: This is SATELLITE DEBRIS
Your satellite tracking list
Your tracking list is empty




NASA's NSSDC Master Catalog

Two Line Element Set (TLE):
1 29851U 99025EV  24252.69866826  .00001390  00000-0  12146-2 0  9995
2 29851  99.6412 277.6220 0143437   0.7046 113.5952 13.83017818890062
Source of the keplerian elements: AFSPC